EN

Hourly Weather Labutevcy

Today, 5 August, Thursday

Time Temperature Precipitation Wind Pressure Humidity
00:00 +14°C° 2.2 mm 2 mps 748 mmHg 97%
01:00 +14°C° 2.2 mm 2 mps 748 mmHg 98%
02:00 +13°C° 0 mm 3 mps 747 mmHg 98%
03:00 +13°C° 1.2 mm 3 mps 747 mmHg 98%
04:00 +13°C° 1.2 mm 3 mps 747 mmHg 97%
05:00 +13°C° 1.2 mm 3 mps 747 mmHg 97%
06:00 +13°C° 0.2 mm 3 mps 747 mmHg 97%
07:00 +13°C° 0.2 mm 3 mps 747 mmHg 97%
08:00 +14°C° 0.2 mm 3 mps 747 mmHg 96%
09:00 +14°C° 0.1 mm 3 mps 747 mmHg 94%
10:00 +14°C° 0.1 mm 4 mps 747 mmHg 92%
11:00 +14°C° 0.1 mm 4 mps 747 mmHg 91%
12:00 +15°C° 0 mm 4 mps 747 mmHg 88%
13:00 +15°C° 0 mm 4 mps 747 mmHg 85%
14:00 +17°C° 0 mm 4 mps 747 mmHg 82%
15:00 +17°C° 0 mm 4 mps 747 mmHg 81%
16:00 +17°C° 0 mm 4 mps 747 mmHg 80%
17:00 +17°C° 0 mm 4 mps 747 mmHg 79%
18:00 +15°C° 0 mm 4 mps 747 mmHg 82%
19:00 +14°C° 0 mm 4 mps 747 mmHg 85%
20:00 +13°C° 0 mm 3 mps 747 mmHg 87%
21:00 +13°C° 0 mm 3 mps 747 mmHg 88%
22:00 +13°C° 0 mm 3 mps 746 mmHg 89%
23:00 +13°C° 0 mm 3 mps 746 mmHg 90%

Tomorrow, 6 August, Friday

Time Temperature Precipitation Wind Pressure Humidity
00:00 +12°C° 0 mm 4 mps 746 mmHg 90%
01:00 +12°C° 0 mm 4 mps 746 mmHg 89%
02:00 +12°C° 0 mm 4 mps 745 mmHg 89%
03:00 +12°C° 0 mm 4 mps 745 mmHg 89%
04:00 +12°C° 0 mm 5 mps 744 mmHg 89%
05:00 +12°C° 0 mm 5 mps 744 mmHg 90%
06:00 +12°C° 0.3 mm 5 mps 743 mmHg 90%
07:00 +11°C° 0.3 mm 6 mps 743 mmHg 91%
08:00 +11°C° 0.3 mm 6 mps 742 mmHg 92%
09:00 +11°C° 2.4 mm 6 mps 742 mmHg 93%
10:00 +13°C° 2.4 mm 6 mps 742 mmHg 95%
11:00 +12°C° 2.4 mm 7 mps 741 mmHg 96%
12:00 +13°C° 1 mm 6 mps 741 mmHg 96%
13:00 +14°C° 1 mm 6 mps 740 mmHg 97%
14:00 +14°C° 1 mm 6 mps 740 mmHg 97%
15:00 +14°C° 0.5 mm 6 mps 740 mmHg 97%
16:00 +14°C° 0.5 mm 6 mps 739 mmHg 97%
17:00 +15°C° 0.5 mm 6 mps 739 mmHg 97%
18:00 +15°C° 0.8 mm 6 mps 738 mmHg 98%
19:00 +15°C° 0.8 mm 6 mps 738 mmHg 98%
20:00 +16°C° 0.8 mm 5 mps 738 mmHg 98%
21:00 +16°C° 0.2 mm 5 mps 738 mmHg 98%
22:00 +17°C° 0.2 mm 4 mps 738 mmHg 98%
23:00 +17°C° 0.2 mm 3 mps 738 mmHg 98%

Day after tomorrow, 7 August, Saturday

Time Temperature Precipitation Wind Pressure Humidity
00:00 +17°C° 0 mm 3 mps 738 mmHg 97%
01:00 +15°C° 0 mm 4 mps 738 mmHg 96%
02:00 +15°C° 0 mm 4 mps 738 mmHg 96%
03:00 +14°C° 0 mm 4 mps 738 mmHg 95%
04:00 +14°C° 0 mm 4 mps 738 mmHg 95%
05:00 +13°C° 0 mm 4 mps 738 mmHg 94%
06:00 +13°C° 0 mm 4 mps 738 mmHg 94%
07:00 +13°C° 0 mm 4 mps 739 mmHg 94%
08:00 +13°C° 0 mm 5 mps 739 mmHg 93%
09:00 +13°C° 0 mm 4 mps 739 mmHg 93%
10:00 +14°C° 0 mm 4 mps 739 mmHg 93%
11:00 +14°C° 0 mm 4 mps 740 mmHg 93%
12:00 +14°C° 0 mm 4 mps 740 mmHg 93%
13:00 +14°C° 0 mm 4 mps 740 mmHg 93%
14:00 +14°C° 0 mm 4 mps 740 mmHg 92%
15:00 +14°C° 0 mm 4 mps 741 mmHg 93%
16:00 +14°C° 0 mm 4 mps 741 mmHg 94%
17:00 +14°C° 0 mm 4 mps 741 mmHg 94%
18:00 +14°C° 0.1 mm 4 mps 742 mmHg 95%
19:00 +15°C° 0.1 mm 4 mps 742 mmHg 95%
20:00 +15°C° 0.1 mm 4 mps 742 mmHg 96%
21:00 +15°C° 0 mm 4 mps 743 mmHg 95%
22:00 +15°C° 0 mm 4 mps 743 mmHg 95%
23:00 +15°C° 0 mm 4 mps 744 mmHg 94%

8 August, Sunday

Time Temperature Precipitation Wind Pressure Humidity
00:00 +14°C° 0 mm 4 mps 744 mmHg 95%
01:00 +13°C° 0 mm 3 mps 744 mmHg 95%
02:00 +12°C° 0 mm 3 mps 745 mmHg 96%
03:00 +12°C° 0 mm 3 mps 745 mmHg 96%
04:00 +11°C° 0 mm 3 mps 746 mmHg 96%
05:00 +11°C° 0 mm 3 mps 746 mmHg 96%
06:00 +14°C° 0 mm 2 mps 746 mmHg 90%
07:00 +15°C° 0 mm 2 mps 746 mmHg 85%
08:00 +17°C° 0 mm 2 mps 746 mmHg 79%
09:00 +19°C° 0 mm 2 mps 747 mmHg 73%
10:00 +21°C° 0 mm 3 mps 747 mmHg 67%
11:00 +24°C° 0 mm 3 mps 747 mmHg 61%
12:00 +25°C° 0 mm 3 mps 747 mmHg 58%
13:00 +26°C° 0 mm 3 mps 747 mmHg 55%
14:00 +27°C° 0 mm 3 mps 747 mmHg 52%
15:00 +26°C° 0 mm 3 mps 747 mmHg 56%
16:00 +26°C° 0 mm 3 mps 747 mmHg 60%
17:00 +25°C° 0 mm 3 mps 747 mmHg 64%
18:00 +24°C° 0 mm 3 mps 747 mmHg 70%
19:00 +22°C° 0 mm 3 mps 747 mmHg 75%
20:00 +20°C° 0 mm 3 mps 747 mmHg 81%
21:00 +20°C° 0 mm 3 mps 747 mmHg 79%
22:00 +20°C° 0 mm 4 mps 747 mmHg 77%
23:00 +20°C° 0 mm 4 mps 747 mmHg 76%

9 August, Monday

Time Temperature Precipitation Wind Pressure Humidity
00:00 +20°C° 0.2 mm 4 mps 747 mmHg 80%
01:00 +19°C° 0.2 mm 3 mps 747 mmHg 84%
02:00 +19°C° 0.2 mm 3 mps 747 mmHg 88%
03:00 +18°C° 0 mm 3 mps 747 mmHg 91%
04:00 +17°C° 0 mm 2 mps 747 mmHg 94%
05:00 +17°C° 0 mm 2 mps 747 mmHg 96%
06:00 +18°C° 0 mm 2 mps 747 mmHg 93%
07:00 +19°C° 0 mm 2 mps 747 mmHg 90%
08:00 +20°C° 0 mm 2 mps 747 mmHg 87%
09:00 +21°C° 0 mm 2 mps 748 mmHg 81%
10:00 +23°C° 0 mm 2 mps 748 mmHg 76%
11:00 +24°C° 0 mm 2 mps 748 mmHg 71%
12:00 +23°C° 0.6 mm 2 mps 748 mmHg 78%
13:00 +21°C° 0.6 mm 2 mps 748 mmHg 84%
14:00 +20°C° 0.6 mm 2 mps 748 mmHg 91%
15:00 +20°C° 0.4 mm 2 mps 748 mmHg 91%
16:00 +19°C° 0.4 mm 3 mps 748 mmHg 92%
17:00 +19°C° 0.4 mm 3 mps 749 mmHg 92%
18:00 +18°C° 0 mm 3 mps 749 mmHg 93%
19:00 +18°C° 0 mm 3 mps 749 mmHg 94%
20:00 +17°C° 0 mm 3 mps 750 mmHg 95%
21:00 +16°C° 0 mm 3 mps 750 mmHg 96%
22:00 +15°C° 0 mm 2 mps 750 mmHg 96%
23:00 +14°C° 0 mm 2 mps 750 mmHg 97%

10 August, Tuesday

Time Temperature Precipitation Wind Pressure Humidity
00:00 +14°C° 0 mm 2 mps 750 mmHg 96%
01:00 +13°C° 0 mm 2 mps 751 mmHg 96%
02:00 +13°C° 0 mm 1 mps 751 mmHg 96%
03:00 +13°C° 0 mm 1 mps 751 mmHg 96%
04:00 +13°C° 0 mm 1 mps 751 mmHg 96%
05:00 +13°C° 0 mm 1 mps 751 mmHg 96%
06:00 +15°C° 0 mm 2 mps 751 mmHg 93%
07:00 +16°C° 0 mm 2 mps 751 mmHg 89%
08:00 +17°C° 0 mm 2 mps 751 mmHg 86%
09:00 +18°C° 0 mm 2 mps 751 mmHg 78%
10:00 +20°C° 0 mm 2 mps 751 mmHg 71%
11:00 +21°C° 0 mm 2 mps 751 mmHg 63%
12:00 +23°C° 0 mm 2 mps 751 mmHg 59%
13:00 +23°C° 0 mm 2 mps 751 mmHg 56%
14:00 +24°C° 0 mm 2 mps 751 mmHg 52%
15:00 +24°C° 0 mm 1 mps 751 mmHg 52%
16:00 +24°C° 0 mm 1 mps 751 mmHg 53%
17:00 +24°C° 0 mm 1 mps 751 mmHg 53%
18:00 +22°C° 0 mm 1 mps 751 mmHg 60%
19:00 +20°C° 0 mm 1 mps 751 mmHg 67%
20:00 +19°C° 0 mm 1 mps 751 mmHg 73%
21:00 +18°C° 0 mm 1 mps 751 mmHg 76%
22:00 +16°C° 0 mm 1 mps 751 mmHg 79%
23:00 +15°C° 0 mm 1 mps 751 mmHg 82%
Show more